Weather History for Hyderabad, India

Change the Weather History Date:

Friday, September 14, 2012

  Actual Average Record
Temperature  
Mean Temperature 80 °F -  
Max Temperature 88 °F 84 °F 98 °F (2006)
Min Temperature 72 °F 71 °F 69 °F (2008)
Cooling Degree Days 15    
Growing Degree Days 30 (Base 50)    
Moisture  
Dew Point 67 °F    
Average Humidity 60    
Maximum Humidity 80    
Minimum Humidity 47    
Precipitation  
Precipitation 0.00 in 0.17 in - ()
Sea Level Pressure  
Sea Level Pressure 29.79 in    
Wind  
Wind Speed 7 mph ()    
Max Wind Speed 14 mph    
Max Gust Speed -    
Visibility 3.7 miles    
Events Rain    
Averages and records for this station are not official NWS values.
T = Trace of Precipitation, MM = Missing Value Source: Averaged Metar Reports

Daily Weather History Graph

Daily Weather History Graph

Search for Another Location

Airport:

Trip Planner

Search our weather history database for the weather conditions in past years. The results will help you decide how hot, cold, wet, or windy it might be!

Date:

Astronomy

Sep. 14, 2012 Rise Set
Actual Time 6:04 AM IST 6:18 PM IST
Civil Twilight 5:42 AM IST 6:40 PM IST
Nautical Twilight 5:17 AM IST 7:06 PM IST
Astronomical Twilight 4:51 AM IST 7:31 PM IST
Moon 4:09 AM IST (9/14) 4:53 PM IST (9/14)
Length of Visible Light 12h 58m
Length of Day
12h 14m
Waning Crescent, 4% of the Moon is Illuminated
Sep 14
Waning Crescent
Sep 16
New
Sep 23
First Quarter
Sep 30
Full
Oct 8
Last Quarter

Hourly Weather History & Observations

Time (IST) Temp. Heat Index Dew Point Humidity Pressure Visibility Wind Dir Wind Speed Gust Speed Precip Events Conditions
2:30 AM 76 °F - 70 °F 77% 29.75 in 2 mi Calm Calm - - Rain Light Rain
5:30 AM 75 °F - 70 °F 80% 29.74 in 2 mi WNW 6.9 mph - -   Haze
6:10 AM 73.4 °F - 64.4 °F 73% 29.86 in 3.1 mi West 11.5 mph - N/A   Haze
7:10 AM 73.4 °F - 64.4 °F 73% 29.86 in 3.1 mi West 11.5 mph - N/A   Haze
8:10 AM 77.0 °F - 66.2 °F 69% 29.89 in 3.1 mi West 10.4 mph - N/A   Haze
8:30 AM 78 °F - 69 °F 68% 29.78 in 6 mi West 4.6 mph - -   Scattered Clouds
9:10 AM 78.8 °F - 66.2 °F 65% 29.89 in 3.1 mi West 13.8 mph - N/A   Haze
10:10 AM 82.4 °F 84.6 °F 66.2 °F 58% 29.89 in 3.7 mi WNW 11.5 mph - N/A   Scattered Clouds
11:10 AM 86.0 °F 88.2 °F 66.2 °F 51% 29.86 in 3.7 mi West 11.5 mph - N/A   Scattered Clouds
11:30 AM 86 °F - 70 °F 50% 29.74 in 6 mi West 11.5 mph - -   Partly Cloudy
12:10 PM 87.8 °F 90.4 °F 66.2 °F 49% 29.86 in 3.7 mi West 11.5 mph - N/A   Scattered Clouds
2:30 PM 88 °F - 71 °F 47% 29.65 in 6 mi West 11.5 mph - -   Partly Cloudy
2:40 PM 86.0 °F 88.2 °F 66.2 °F 51% 29.80 in 3.7 mi WSW 10.4 mph - N/A   Scattered Clouds
3:10 PM 87.8 °F 90.4 °F 66.2 °F 49% 29.77 in 3.7 mi West 10.4 mph - N/A   Scattered Clouds
4:10 PM 86.0 °F 87.3 °F 64.4 °F 48% 29.77 in 3.7 mi WSW 11.5 mph - N/A   Scattered Clouds
5:10 PM 86.0 °F 88.2 °F 66.2 °F 51% 29.77 in 3.7 mi WSW 11.5 mph - N/A   Scattered Clouds
5:30 PM 85 °F - 68 °F 47% 29.63 in 6 mi West 3.5 mph - -   Scattered Clouds
6:10 PM 84.2 °F 86.6 °F 66.2 °F 55% 29.77 in 3.7 mi West 9.2 mph - N/A   Mostly Cloudy
8:10 PM 80.6 °F 82.7 °F 66.2 °F 61% 29.80 in 3.1 mi West 5.8 mph - N/A   Haze
8:30 PM 80 °F - 71 °F 69% 29.70 in 2 mi Calm Calm - -   Haze
9:10 PM 80.6 °F 82.7 °F 66.2 °F 61% 29.83 in 3.1 mi WSW 4.6 mph - N/A   Haze